Location: Clermont
(50.2608°N, 4.3172°E)
Time: 04:43:00
(UTC+00:00)

X-37B - Pass Details

Date: 13 August 2020
Orbit: 386 x 387 km, 45.0° (Epoch: 18 September)

Event Time Altitude Azimuth Distance (km) Brightness Sun altitude
Rises 20:45:22 0° 262° (W) 2,266 5.0 -14.1°
Reaches altitude 10° 20:47:36 10° 251° (WSW) 1,411 3.7 -14.4°
Maximum altitude 20:50:22 28° 190° (S) 766 1.7 -14.7°
Enters shadow 20:50:44 27° 176° (S) 782 1.7 -14.7°
